Regional Weather Roundup
Issued by NWS

Home | Current Version | Previous Version | Text Only | Print | Product List | Glossary On
Versions: 1 2 3 4 5 6 7 8 9 10 11 12 13 14 15 16 17 18 19 20 21 22 23 24 25 26 27 28 29 30 31 32 33 34 35 36 37 38 39 40 41 42 43 44 45 46 47 48 49 50
000
ASUS43 KIND 290859
RWRIN

WEATHER ROUNDUP FOR INDIANA
NATIONAL WEATHER SERVICE INDIANAPOLIS IN
400 AM EST MON DEC 29 2014

NOTE: "FAIR" INDICATES FEW OR NO CLOUDS BELOW 12,000 FEET WITH NO
SIGNIFICANT WEATHER AND/OR OBSTRUCTIONS TO VISIBILITY.

* - STATION DOES NOT REPORT WEATHER SUCH AS PRECIPITATION OR FOG.

+ - STATION NOT QUALITY CONTROLLED BY THE NATIONAL WEATHER SERVICE.
    USE DATA WITH CAUTION...ESPECIALLY DEWPOINT AND RELATIVE
    HUMIDITY OBSERVATIONS.

INZ001>003-010>013-019-020-291000-
NORTHWEST INDIANA

CITY           SKY/WX    TMP DP  RH WIND       PRES   REMARKS
GARY /AIRPORT/ PTCLDY    25  20  82 SW3       30.27S
KNOX *+        CLEAR     20  15  84 CALM      30.25F
VALPARAISO     NOT AVBL

$$

LMZ046-743>745-291000-
SOUTHERN LAKE MICHIGAN

STATION/POSITION TIME  TEMP WIND        PRES
                       AIR  DIR/SP/G
                 (UTC) (F)  (DEG/KT/KT) (MB)
MICHIGAN CITY    0800   33  320/ 10/ 12   N/A

$$

INZ004-005-014>016-021>024-291000-
NORTH CENTRAL INDIANA

CITY           SKY/WX    TMP DP  RH WIND       PRES   REMARKS
GOSHEN         MOCLDY    22  20  92 CALM      30.24R FOG
PERU/GRISSOM   CLEAR     21  21 100 CALM      30.25S FOG
SOUTH BEND     CLOUDY    24  20  84 CALM      30.25S
WARSAW +       CLEAR     21  19  93 CALM      30.25S FOG

$$

INZ006>009-017-018-025>027-291000-
NORTHEAST INDIANA

CITY           SKY/WX    TMP DP  RH WIND       PRES   REMARKS
ANGOLA *+      CLEAR     19  18  93 CALM      30.23R
FORT WAYNE     PTCLDY    23  19  85 W3        30.26R

$$

INZ028-029-035-036-043>045-051>053-291000-
WEST CENTRAL INDIANA

CITY           SKY/WX    TMP DP  RH WIND       PRES   REMARKS
GREENCASTLE +  CLEAR     21  18  86 N5        30.24S WCI  15
LAFAYETTE      CLEAR     20  18  92 S3        30.26F FOG
TERRE HAUTE    CLEAR     22  19  89 N5        30.26S WCI  16

$$

INZ030>032-037>040-046>048-054>057-064-065-291000-
CENTRAL INDIANA

CITY           SKY/WX    TMP DP  RH WIND       PRES   REMARKS
CP ATTERBURY + CLEAR     23  23 100 MISG      30.25S FOG
INDIANAPOLIS   CLEAR     20  18  92 N5        30.23S WCI  13
-EAGLE CREEK   CLEAR     21  19  92 N3        30.24S
KOKOMO *+      CLEAR     21  18  86 CALM      30.25S
MT COMFORT *+  CLEAR     23  21  93 NE5       30.24F WCI  17
SHELBYVILLE    CLEAR     26  22  84 NE3       30.23S

$$

INZ033-034-041-042-049-050-058-059-291000-
EAST CENTRAL INDIANA

CITY           SKY/WX    TMP DP  RH WIND       PRES   REMARKS
MUNCIE         CLEAR     23  20  88 CALM      30.24S FOG

$$

INZ060-061-067>069-081>083-085>088-291000-
SOUTHWEST INDIANA

CITY           SKY/WX    TMP DP  RH WIND       PRES   REMARKS
EVANSVILLE     CLOUDY    32  26  78 N6        30.24S WCI  26
HUNTINGBURG *+ CLOUDY    32  27  80 N6        30.23S WCI  26

$$

INZ062-063-066-070>080-084-089>092-291000-
SOUTH CENTRAL AND SOUTHEAST INDIANA

CITY           SKY/WX    TMP DP  RH WIND       PRES   REMARKS
BLOOMINGTON    CLEAR     23  21  92 N5        30.23S WCI  17

$$



USA.gov is the U.S. government's official web portal to all federal, state and local government web resources and services.